Flag for Germany Weather past 2 weeks in Gladbeck, North Rhine-Westphalia, Germany

Now
65 °F

Thunderstorms. Partly sunny.


Feels Like: 65 °F
Forecast: 62 / 70 °F
Wind: 2 mph from East

Location: Duesseldorf

Current Time: Jul 24, 2014 at 10:02:14 PM

Latest Report: Jul 24, 2014 at 9:00 PM


Visibility: 19 mi

Pressure: 29.98 "Hg

Humidity: 91%

Dew point: 62 °F

Location of GladbeckLocation

Historic Weather in Gladbeck — Graph

°F

Gladbeck temperature yesterday

Maximum temperature yesterday: 83 °F (at 5:00 PM)
Minimum temperature yesterday: 64 °F (at 3:00 AM)
Average temperature yesterday: 75 °F

Past Weeks' High & Low Weather Summary

 TemperatureHumidityPressure
High93 °F (Jul 19, 5:00 PM)96% (Jul 9, 9:00 PM)30.19 "Hg (Jul 9, 9:00 PM)
Low53 °F (Jul 15, 3:00 AM)25% (Jul 19, 3:00 PM)29.69 "Hg (Jul 9, 9:00 PM)
Average70 °F72%29.96 "Hg
* Reported Jul 9 9:00 PM — Jul 24 9:00 PM, Gladbeck, Weather by CustomWeather, © 2014

Note: Actual official high and low records may vary slightly from our data, if they occured in-between our weather recording intervals... More about our weather records

Advertising

Gladbeck weather history for previous 24 hours

 ConditionsComfort  
Time TempWeatherWind HumidityBarometerVisibility
9:00 PM
Jul 24
65 °FThunderstorms. Partly sunny.2 mph91%29.98 "Hg19 mi
8:00 PM66 °FThundershowers. Partly sunny.3 mph73%29.95 "Hg16 mi
7:00 PM70 °FThunderstorms. Overcast.5 mph61%29.94 "Hg25 mi
6:00 PM72 °FThunderstorms. Overcast.2 mph68%29.95 "Hg19 mi
4:00 PM80 °FPartly sunny.7 mph39%29.94 "Hg28 mi
3:00 PM80 °FScattered clouds.7 mph43%29.95 "Hg25 mi
2:00 PM79 °FScattered clouds.7 mph46%29.96 "Hg22 mi
1:00 PM78 °FScattered clouds.7 mph51%29.97 "Hg22 mi
12:00 PM76 °FPassing clouds.5 mph52%29.97 "Hg22 mi
10:00 AM72 °FPassing clouds.5 mph57%29.98 "Hg22 mi
9:00 AM69 °FScattered clouds.5 mph64%29.98 "Hg19 mi
8:00 AM66 °FScattered clouds.6 mph69%29.99 "Hg19 mi
7:00 AM65 °FPassing clouds.3 mph72%29.98 "Hg19 mi
6:00 AM64 °FPassing clouds.5 mph73%29.98 "Hg22 mi
5:00 AM65 °FPassing clouds.5 mph72%29.97 "Hg16 mi
4:00 AM64 °FClear.5 mph77%29.98 "Hg22 mi
3:00 AM66 °FClear.5 mph72%29.99 "Hg19 mi
2:00 AM66 °FClear.2 mph75%30.00 "Hg22 mi
1:00 AM66 °FClear.2 mph76%30.00 "Hg25 mi
12:00 AM70 °FPassing clouds.2 mph67%30.01 "Hg25 mi
10:00 PM
Jul 23
75 °FPassing clouds.3 mph57%30.00 "Hg22 mi
Weather by CustomWeather, © 2014

See weather overviewHow to use our weather pages